Weather History for KRXE - June, 2013

Change the Weather History Date:

Friday, June 14, 2013

  Actual Average Record
Temperature  
Mean Temperature 53 °F 59 °F  
Max Temperature 64 °F 74 °F 82 °F (2003)
Min Temperature 42 °F 45 °F 36 °F (2001)
Degree Days  
Heating Degree Days 12 6  
Month to date heating degree days 60 102  
Since 1 June heating degree days 60 102  
Since 1 July heating degree days 7744 8060  
Cooling Degree Days 0 1  
Month to date cooling degree days 16 2  
Year to date cooling degree days 18 6  
Since 1 June cooling degree days 16 2  
Growing Degree Days 4 (Base 50)    
Moisture  
Dew Point 33 °F    
Average Humidity 50    
Maximum Humidity 71    
Minimum Humidity 29    
Precipitation  
Precipitation 0.00 in 0.05 in 0.53 in (2006)
Month to date precipitation 0.19 0.83  
Year to date precipitation 4.44 6.70  
Sea Level Pressure  
Sea Level Pressure 30.08 in    
Wind  
Wind Speed 13 mph (SSW)    
Max Wind Speed 24 mph    
Max Gust Speed 33 mph    
Visibility 10 miles    
Events      
T = Trace of Precipitation, MM = Missing Value Source: NWS Daily Summary

Daily Weather History Graph

Daily Weather History Graph

Search for Another Location

Airport or City:

Trip Planner

Search our weather history database for the weather conditions in past years. The results will help you decide how hot, cold, wet, or windy it might be!

Date:

Astronomy

Jun. 14, 2013 Rise Set
Actual Time 5:44 AM MDT 9:10 PM MDT
Civil Twilight 5:08 AM MDT 9:47 PM MDT
Nautical Twilight 4:21 AM MDT 10:34 PM MDT
Astronomical Twilight 3:21 AM MDT 11:34 PM MDT
Moon 11:33 AM MDT (6/14) 12:09 AM MDT (6/14)
Length of Visible Light 16h 38m
Length of Day
15h 26m
Waxing Crescent, 31% of the Moon is Illuminated
Jun 14
Waxing Crescent
Jun 16
First Quarter
Jun 23
Full
Jun 29
Last Quarter
Jul 8
New

Hourly Weather History & Observations

Time (MDT) Temp. Windchill Dew Point Humidity Pressure Visibility Wind Dir Wind Speed Gust Speed Precip Events Conditions
12:53 AM 51.1 °F - 37.0 °F 59% 29.93 in 10.0 mi South 15.0 mph 24.2 mph N/A   Clear
1:53 AM 50.0 °F - 36.0 °F 59% 29.98 in 10.0 mi SSW 10.4 mph 18.4 mph N/A   Clear
2:53 AM 48.0 °F - 34.0 °F 58% 29.98 in 10.0 mi South 16.1 mph 20.7 mph N/A   Partly Cloudy
3:53 AM 48.0 °F - 32.0 °F 54% 29.99 in 10.0 mi South 13.8 mph 24.2 mph N/A   Clear
4:53 AM 46.0 °F 38.5 °F 33.1 °F 61% 29.99 in 10.0 mi SSW 19.6 mph 33.4 mph N/A   Scattered Clouds
5:53 AM 44.1 °F 36.8 °F 33.1 °F 65% 30.04 in 10.0 mi SW 16.1 mph 24.2 mph N/A   Clear
6:53 AM 44.1 °F 37.1 °F 33.1 °F 65% 30.09 in 10.0 mi SSW 15.0 mph 23.0 mph N/A   Clear
7:53 AM 46.9 °F - 34.0 °F 61% 30.12 in 10.0 mi SSW 18.4 mph 28.8 mph N/A   Clear
8:53 AM 50.0 °F - 34.0 °F 54% 30.14 in 10.0 mi SW 19.6 mph 29.9 mph N/A   Clear
9:53 AM 52.0 °F - 34.0 °F 50% 30.14 in 10.0 mi SSW 19.6 mph 25.3 mph N/A   Scattered Clouds
10:53 AM 52.0 °F - 35.1 °F 53% 30.15 in 10.0 mi SW 17.3 mph 25.3 mph N/A   Partly Cloudy
11:53 AM 55.0 °F - 34.0 °F 45% 30.15 in 10.0 mi SSW 16.1 mph 25.3 mph N/A   Partly Cloudy
12:53 PM 57.0 °F - 34.0 °F 42% 30.14 in 10.0 mi South 15.0 mph 21.9 mph N/A   Partly Cloudy
1:53 PM 60.1 °F - 32.0 °F 35% 30.13 in 10.0 mi SSW 12.7 mph 25.3 mph N/A   Clear
2:53 PM 61.0 °F - 33.1 °F 35% 30.12 in 10.0 mi SSW 15.0 mph 24.2 mph N/A   Clear
3:53 PM 62.1 °F - 32.0 °F 32% 30.10 in 10.0 mi SSW 13.8 mph 20.7 mph N/A   Clear
4:53 PM 62.1 °F - 32.0 °F 32% 30.09 in 10.0 mi South 13.8 mph 23.0 mph N/A   Clear
5:53 PM 63.0 °F - 30.9 °F 30% 30.08 in 10.0 mi SSW 15.0 mph 20.7 mph N/A   Clear
6:53 PM 63.0 °F - 30.0 °F 29% 30.07 in 10.0 mi SSW 11.5 mph 19.6 mph N/A   Clear
7:53 PM 61.0 °F - 28.9 °F 30% 30.07 in 10.0 mi South 10.4 mph 18.4 mph N/A   Clear
8:53 PM 57.9 °F - 28.9 °F 33% 30.08 in 10.0 mi South 4.6 mph - N/A   Clear
9:53 PM 53.1 °F - 32.0 °F 45% 30.10 in 10.0 mi South 4.6 mph - N/A   Clear
10:53 PM 48.0 °F - 37.0 °F 66% 30.15 in 10.0 mi ENE 6.9 mph - N/A   Clear
11:53 PM 46.0 °F 44.8 °F 37.0 °F 71% 30.14 in 10.0 mi NE 3.5 mph - N/A   Clear